Regional Weather Roundup
Issued by NWS

Home | Current Version | Previous Version | Text Only | Print | Product List | Glossary Off
Versions: 1 2 3 4 5 6 7 8 9 10 11 12 13 14 15 16 17 18 19 20 21 22 23 24 25 26 27 28 29 30 31 32 33 34 35 36 37 38 39 40 41 42 43 44 45 46 47 48 49 50

000
ASUS43 KDTX 022010
RWRMI
MICHIGAN HOURLY REGIONAL WEATHER ROUNDUP
NATIONAL WEATHER SERVICE DETROIT/PONTIAC MI
ISSUED BY NATIONAL WEATHER SERVICE GRAND RAPIDS MI
400 PM EDT WED SEP 02 2015

NOTE: "FAIR" INDICATES FEW OR NO CLOUDS BELOW 12,000 FEET WITH NO
SIGNIFICANT WEATHER AND/OR OBSTRUCTION TO VISIBILITY.

MIZ047>049-052>055-059>063-066>070-074>076-081>083-022100-
SOUTHEAST LOWER MICHIGAN

CITY           SKY/WX    TMP DP  RH WIND       PRES   REMARKS
ADRIAN         PTSUNNY   91  66  43 NW13      30.00F HX  93
ALMA           PTSUNNY   89  74  61 W12       29.98F HX  97
ANN ARBOR      SUNNY     90  69  50 W16       29.99F HX  94
BAD AXE        PTSUNNY   86  73  64 W8        29.97F HX  93
DETROIT CITY   MOSUNNY   89  70  53 W10       29.96F HX  94
DETROIT        PTSUNNY   89  72  56 SW13      29.98F HX  96
FLINT          MOSUNNY   91  72  53 W10       29.97F HX  98
GROSSE ILE     MOSUNNY   90  73  58 W7        29.97F HX  98
HILLSDALE      MOSUNNY   87  70  55 W9        30.03F HX  92
HOWELL         PTSUNNY   89  69  51 W13G20    29.99F HX  94

CITY           SKY/WX    TMP DP  RH WIND       PRES   REMARKS
JACKSON        MOSUNNY   87  71  58 W12       30.01F HX  93
LANSING        MOSUNNY   89  70  53 W15G22    30.00F HX  94
MASON          MOSUNNY   87  68  53 W12       30.00F HX  90
MONROE         MOSUNNY   89  73  57 SW3       29.98F HX  96
MT. CLEMENS    MOSUNNY   87  71  57 W8        29.94F HX  93
PONTIAC        MOSUNNY   89  70  53 W13       29.98F HX  94
PORT HOPE        N/A     77  72  84 N3        29.96F
PORT HURON     MOSUNNY   86  72  62 SW5       29.96F HX  92
TRI CITIES     MOSUNNY   77  69  76 S3        29.98S
YPSILANTI      MOSUNNY   89  73  59 SW10      29.99F HX  97
$$
MIZ043>046-050>051-056>058-064>065-071>073-077>080-022100-
SOUTHWEST LOWER MICHIGAN

CITY           SKY/WX    TMP DP  RH WIND       PRES   REMARKS
BATTLE CREEK   SUNNY     89  70  53 W14       30.03F HX  94
BENTON HARBOR  SUNNY     85  69  58 W6        30.02F
BIG RAPIDS     MOSUNNY   88  69  53 W8        29.98F HX  92
COLDWATER      MOSUNNY   91  66  44 W7        30.01F HX  93
HOLLAND        SUNNY     86  71  60 W8        30.02F HX  91
GRAND RAPIDS   MOSUNNY   88  71  57 W13       30.01F HX  94
KALAMAZOO      MOSUNNY   88  69  53 NW9       30.02F HX  92
MARSHALL       MOSUNNY   88  71  56 W10       30.01F HX  94
MOUNT PLEASANT MOSUNNY   88  75  66 NW5       29.96F HX  98
MUSKEGON       MOSUNNY   82  69  64 SW9       30.01F
STURGIS        MOSUNNY   88  70  55 W8        30.02F HX  92
$$
MIZ016>042-022100-
NORTHERN LOWER MICHIGAN

CITY           SKY/WX    TMP DP  RH WIND       PRES   REMARKS
ALPENA         LGT RAIN  77  73  87 SE7       29.96F FOG
BEAVER ISLAND  CLOUDY    71  67  87 W9        30.01R
BELLAIRE       PTSUNNY   85  73  65 NW6       29.95F HX  92
CADILLAC       MOSUNNY   87  71  60 W7        29.99F HX  92
CHARLEVOIX     PTSUNNY   76  72  87 NW6       30.01S FOG
GAYLORD        PTSUNNY   84  72  67 VRB5      29.98F
HOUGHTON LAKE  MOSUNNY   79  68  69 CALM      29.98F
MANISTEE       SUNNY     82  72  69 W7        29.98F
OSCODA         SUNNY     88  72  59 S9        29.93F HX  95
PELLSTON       CLOUDY    78  71  79 NW12      29.98S
TRAVERSE CITY  PTSUNNY   83  69  62 N5        29.95F
LUDINGTON      SUNNY     81  72  73 SW6       29.99F
$$
MIZ007>008-015-022100-
EASTERN UPPER MICHIGAN

CITY           SKY/WX    TMP DP  RH WIND       PRES   REMARKS
KINROSS        CLOUDY    79  70  73 N9        29.98F
MACKINAC ISLAN CLOUDY    77  71  81 CALM      29.98F
NEWBERRY       CLOUDY    75  69  83 CALM      30.00S
S. S. MARIE    CLOUDY    77  67  71 NW7       29.98S
$$
MIZ004>006-011>014-085-022100-
CENTRAL UPPER MICHIGAN

CITY           SKY/WX    TMP DP  RH WIND       PRES   REMARKS
MANISTIQUE     CLOUDY    75  72  90 NE5       29.97F
ESCANABA       PTSUNNY   77  73  88 NE9       29.95F
MENOMINEE      MOSUNNY   75  64  69 E12G21    29.94F
$$
MIZ001>003-009>011-084-022100-
WESTERN UPPER MICHIGAN

CITY           SKY/WX    TMP DP  RH WIND       PRES   REMARKS
IRON MOUNTAIN  CLOUDY    76  67  73 N9        29.98F
HOUGHTON       LGT RAIN  68  66  93 SW5       29.99F
COPPER HARBOR    N/A     68  62  81 CALM      29.97F
IRONWOOD       CLOUDY    70  66  88 SE13      29.93F
$$

ABBREVIATIONS USED IN REMARKS
   TC - TEMPERATURE IN CELSIUS
  WCI - WIND CHILL INDEX
   HX - HEAT INDEX
  VSB - VISIBILITY



USA.gov is the U.S. government's official web portal to all federal, state and local government web resources and services.